TimeMDT,TemperatureF,Dew PointF,Humidity,Sea Level PressureIn,VisibilityMPH,Wind Direction,Wind SpeedMPH,Gust SpeedMPH,PrecipitationIn,Events,Conditions,WindDirDegrees,DateUTC
12:55 AM,42.1,30.0,62,30.15,10.0,SSE,12.7,-,N/A,,Overcast,150,2013-04-19 06:55:00
1:55 AM,42.1,30.0,62,30.13,10.0,SSE,10.4,-,N/A,,Overcast,160,2013-04-19 07:55:00
2:55 AM,42.1,30.0,62,30.10,10.0,South,8.1,-,N/A,,Overcast,170,2013-04-19 08:55:00
3:55 AM,39.0,34.0,82,30.09,10.0,SSE,5.8,-,0.03,Rain,Light Rain,160,2013-04-19 09:55:00
4:55 AM,39.0,34.0,82,30.07,10.0,SSE,13.8,-,0.00,,Overcast,160,2013-04-19 10:55:00
5:55 AM,39.9,33.1,77,30.04,10.0,SSE,15.0,-,N/A,,Overcast,150,2013-04-19 11:55:00
6:55 AM,39.9,34.0,79,30.02,10.0,SSE,15.0,24.2,N/A,,Overcast,160,2013-04-19 12:55:00
7:55 AM,39.9,34.0,79,30.00,10.0,SSE,11.5,-,N/A,,Overcast,160,2013-04-19 13:55:00
8:55 AM,41.0,35.1,79,29.99,10.0,SE,13.8,21.9,0.00,,Overcast,140,2013-04-19 14:55:00
9:55 AM,42.1,35.1,76,29.97,10.0,SE,11.5,19.6,0.00,,Overcast,140,2013-04-19 15:55:00
10:55 AM,43.0,36.0,76,29.96,10.0,SE,10.4,-,0.00,Rain,Light Rain,140,2013-04-19 16:55:00
11:55 AM,44.1,37.9,79,29.95,10.0,SE,9.2,-,0.02,Rain,Light Rain,140,2013-04-19 17:55:00
12:09 PM,44.6,37.4,76,29.92,10.0,SE,8.1,-,0.01,Rain,Light Rain,140,2013-04-19 18:09:00
12:46 PM,44.6,39.2,81,29.91,10.0,SE,9.2,-,0.03,Rain,Light Rain,140,2013-04-19 18:46:00
12:55 PM,44.1,39.0,82,29.95,10.0,SE,12.7,-,0.03,Rain,Light Rain,140,2013-04-19 18:55:00
1:55 PM,44.1,41.0,89,29.94,10.0,SSE,13.8,23.0,0.01,Rain,Light Rain,150,2013-04-19 19:55:00
2:34 PM,44.6,42.8,93,29.90,8.0,SSE,15.0,-,0.03,Rain,Light Rain,160,2013-04-19 20:34:00
2:55 PM,46.0,44.1,93,29.93,10.0,SSE,17.3,-,0.04,Rain,Light Rain,160,2013-04-19 20:55:00
3:07 PM,46.4,42.8,87,29.89,10.0,SSE,17.3,-,0.00,Rain,Light Rain,150,2013-04-19 21:07:00
3:15 PM,44.6,42.8,93,29.89,10.0,SSE,13.8,23.0,0.00,Rain,Light Rain,150,2013-04-19 21:15:00
3:31 PM,46.4,42.8,87,29.88,10.0,SSE,16.1,-,0.00,Rain,Light Rain,150,2013-04-19 21:31:00
3:55 PM,46.9,43.0,86,29.91,10.0,SSE,18.4,-,0.00,,Overcast,150,2013-04-19 21:55:00
4:34 PM,46.4,44.6,93,29.87,10.0,SE,15.0,-,0.01,Rain,Light Rain,140,2013-04-19 22:34:00
4:46 PM,46.4,42.8,87,29.87,10.0,SSE,15.0,-,0.01,Rain,Light Rain,150,2013-04-19 22:46:00
4:55 PM,46.0,42.1,86,29.91,10.0,SE,15.0,-,0.01,Rain,Light Rain,140,2013-04-19 22:55:00
5:55 PM,46.9,41.0,80,29.90,10.0,SSE,13.8,-,0.01,Rain,Light Rain,150,2013-04-19 23:55:00
6:55 PM,46.9,42.1,83,29.89,10.0,SSE,12.7,-,0.00,Rain,Light Rain,150,2013-04-20 00:55:00
7:55 PM,46.0,41.0,83,29.88,10.0,SSE,13.8,-,0.00,,Clear,150,2013-04-20 01:55:00
8:55 PM,45.0,39.9,82,29.89,10.0,South,9.2,-,N/A,,Overcast,170,2013-04-20 02:55:00
9:55 PM,45.0,39.9,82,29.90,10.0,SSE,12.7,-,N/A,,Overcast,160,2013-04-20 03:55:00
10:55 PM,45.0,39.9,82,29.91,10.0,South,9.2,-,0.00,Rain,Light Rain,180,2013-04-20 04:55:00
11:55 PM,44.1,39.9,85,29.90,10.0,SSE,4.6,-,0.00,,Overcast,160,2013-04-20 05:55:00